FENGYUN 1C DEB, 30171

Orbit data source: Space-Track

FENGYUN 1C DEB, 30171 is space debris in SSO originally from a launch on Mon, 10 May 1999 UTC launched from the Taiyaun Space Center, China (TSC). Fengyun 1C debris stems from the Chinese weather satellite Fengyun-1C, which was intentionally destroyed by a Chinese anti-satellite missile in 2007. This event dramatically increased the amount of space debris, with thousands of trackable fragments posing hazards to satellites and human spaceflight. The Fengyun 1C debris cloud has become a focal point in discussions about space sustainability and the need for international regulations to prevent the creation of new debris.

Loading next visibility...
Identifier
30171, 1999-025UC
Orbit
SSO
Country
Flag of CNCN / PRC
Related business
Manufacturer
Unknown
Mission
Spacecraft
Bus & Motor
Unknown
Mass
Unknown
Launch date (UTC)
1999-05-10 (27 years ago)
Launch vehicle
Unknown
Launch site
Taiyaun Space Center, China (TSC)
Object type
Payload
Rocket body
Debris
Shape & HBR
Unknown shape, 0.1 m
Radar Cross Section
Small (<0.1 m²)

Expand to show TLE details & history
Last TLE update: 12 hours ago

TLE from 12 hours ago
0 FENGYUN 1C DEB
1 30171U 99025UC  26071.11625488  .00000214  00000-0  15648-3 0  9992
2 30171  98.3929 286.1499 0185570  17.4287 343.3134 13.96931166975184
Epoch: 2026-03-12T02:47Z
TLE epoch observation values (Epoch: 2026-03-12T02:47:24.421Z)
Latitude
-0.0001°
Longitude
74.5274°
Altitude
778.07 km
Speed
7.531 km/s
True Right ascension
19h 04m 35s
True Declination
0° 00' 00"
Sunlit
Object was in daylight at epoch
Visualization orbit readout
Latitude
Unknown
Longitude
Unknown
Altitude
Unknown
Speed
Unknown
Apparent Right ascension
Unknown
Apparent Declination
Unknown
Sunlit
N/A
Visualization observer readout
Local Sidereal Time
18:38:05
Azimuth
Unknown
Elevation
Unknown
Doppler factor
Unknown
Orbital elements
Apogee altitude
1,036.705 km
Perigee altitude
766.524 km
Semi-major axis
7,279.752 km
Eccentricity
0.01856
Inclination
98.3929°
RAAN
286.1499°
Arg. of periapsis
17.4287°
True anomaly
342.68896°
Mean anomaly
343.3134°
Eccentric anomaly
343.00259°
Mean motion
3.49437 °/min
Orbital period
103.02 mins
BSTAR
0.00015648
Loading maneuver chart data...
Computing Atmospheric mass density...
Loading historical data...
Loading historical data...
Loading historical data...
Loading historical data...
Loading historical data...
Loading historical data...
Loading historical data...

Documentation

Showing up to 5 results
|